Regional Weather Roundup
Issued by NWS

Home | Current Version | Previous Version | Graphics & Text | Print | Product List | Glossary On
Versions: 1 2 3 4 5 6 7 8 9 10 11 12 13 14 15 16 17 18 19 20 21 22 23 24 25 26 27 28 29 30 31 32 33 34 35 36 37 38 39 40 41 42 43 44 45 46 47 48 49 50
000
ASUS43 KLSX 232107
RWRMO

WEATHER SUMMARY FOR MISSOURI
NATIONAL WEATHER SERVICE SPRINGFIELD MO
400 PM CDT TUE AUG 23 2016

NOTE: "FAIR" INDICATES FEW OR NO CLOUDS BELOW 12,000 FEET WITH NO
       SIGNIFICANT WEATHER AND/OR OBSTRUCTIONS TO VISIBILITY.
       CURRENT SKY AND/OR WEATHER CONDITIONS ARE NOT AVAILABLE FOR
       CHILLICOTHE AND FARMINGTON.

MOZ001>031-035>038-043-044-053-054-232200-
...NORTHERN AND WESTERN MISSOURI...

CITY           SKY/WX    TMP DP  RH WIND       PRES   REMARKS
KANSAS CTY INT PTSUNNY   85  71  63 S21G30    29.95F HX  90
KANSAS C DTWN  MOSUNNY   87  75  67 S14       29.95F HX  96
LEE`S SUMMIT   CLOUDY    85  73  67 S24G33    29.99F HX  91
ST JOSEPH      CLOUDY    84  74  71 S17G25    29.93F HX  91
CHILLICOTHE      N/A     80  74  81 SE7       30.00F
KIRKSVILLE     CLOUDY    79  71  76 S13       30.05F

$$
MOZ066>068-077>081-088>096-101>105-232200-
...SOUTHWEST MISSOURI...

CITY           SKY/WX    TMP DP  RH WIND       PRES   REMARKS
SPRINGFIELD    MOSUNNY   85  70  60 S12       30.09F
JOPLIN         MOSUNNY   83  72  69 S15       30.05F
BRANSON        PTSUNNY   82  70  65 S9        30.14F

$$
MOZ032>034-039>042-045>050-055>058-069>072-232200-
...CENTRAL MISSOURI...

CITY           SKY/WX    TMP DP  RH WIND       PRES   REMARKS
COLUMBIA       MOSUNNY   74  72  93 S9        30.09F
JEFFERSON CITY CLOUDY    75  71  87 S12       30.07F
ROLLA          LGT RAIN  74  72  93 SE8       30.14F
SEDALIA        CLOUDY    81  74  79 S16G22    30.06F
WHITEMAN AFB   PTSUNNY   82  78  86 S20G26    30.02F HX  91
OSAGE BEACH    LGT RAIN  76  74  93 SE6       30.11F

$$
MOZ051-052-059>065-232200-
...EAST CENTRAL MISSOURI...

CITY           SKY/WX    TMP DP  RH WIND       PRES   REMARKS
ST LOUIS INTL  CLOUDY    78  68  71 S9        30.15S
SPIRIT OF STL  CLOUDY    76  71  85 S5        30.13F
ST CHARLES     CLOUDY    76  72  87 S8        30.13F

$$
MOZ072>076-082>087-097>100-106>115-232200-
...SOUTH CENTRAL AND SOUTHEAST MISSOURI...

CITY           SKY/WX    TMP DP  RH WIND       PRES   REMARKS
CAPE GIRARDEAU CLOUDY    83  73  72 SW9       30.14F
FARMINGTON     CLOUDY    75  72  90 S9        30.17S
POPLAR BLUFF   MOSUNNY   83  74  74 SW10      30.14F
WEST PLAINS    PTSUNNY   82  74  76 S7        30.17F

$$



USA.gov is the U.S. government's official web portal to all federal, state and local government web resources and services.